GW6964 Weather Reports


time (UTC)temp
F
wind
direction
speed
knots
gust
knots
rain 1hr
in
rain 24hr
in
rain mn
in
humidity
%
barometer
mb
20260510164614 68 79 2.6 8.7 0.00 0.00 0.00 52 1019.2
20260510164110 68 44 9.6 11.3 0.00 0.00 0.00 48 1019.4
20260510163605 69 62 10.4 16.5 0.00 0.00 0.00 48 1019.1
20260510163101 69 112 7.0 9.6 0.00 0.00 0.00 50 1019.1
20260510162556 68 63 1.7 7.0 0.00 0.00 0.00 54 1019.2
20260510162053 67 70 1.7 7.0 0.00 0.00 0.00 55 1019.1
20260510161549 67 81 5.2 11.3 0.00 0.00 0.00 52 1018.9
20260510161046 67 68 2.6 7.0 0.00 0.00 0.00 57 1019.1
20260510160543 66 80 3.5 6.1 0.00 0.00 0.00 58 1019.1
20260510160042 65 114 3.5 11.3 0.00 0.00 0.00 57 1019.0
20260510155539 65 69 4.3 11.3 0.00 0.00 0.00 59 1018.9
20260510155035 65 109 4.3 7.8 0.00 0.00 0.00 61 1018.7
20260510154531 65 334 6.1 9.6 0.00 0.00 0.00 61 1018.7
20260510154026 65 42 5.2 8.7 0.00 0.00 0.00 61 1018.5
20260510153521 64 91 1.7 7.8 0.00 0.00 0.00 63 1018.3
20260510153019 64 60 8.7 13.9 0.00 0.00 0.00 63 1018.2
20260510152516 64 86 5.2 8.7 0.00 0.00 0.00 66 1017.9
20260510152012 64 90 1.7 7.8 0.00 0.00 0.00 69 1018.2
20260510151509 64 51 3.5 13.9 0.00 0.00 0.00 69 1017.9
20260510151006 64 82 4.3 9.6 0.00 0.00 0.00 70 1017.9
20260510150501 63 51 7.8 12.2 0.00 0.00 0.00 70 1018.0
20260510145957 63 82 4.3 11.3 0.00 0.00 0.00 72 1018.0
20260510145454 63 63 6.1 13.9 0.00 0.00 0.00 71 1018.0
20260510144950 63 47 5.2 9.6 0.00 0.00 0.00 72 1018.2
20260510144447 63 74 2.6 7.8 0.00 0.00 0.00 72 1018.1
20260510143943 62 78 1.7 7.0 0.00 0.00 0.00 73 1018.1
20260510143439 63 43 6.1 9.6 0.00 0.00 0.00 73 1018.2
20260510142936 63 27 4.3 7.8 0.00 0.00 0.00 75 1018.1
20260510142433 63 90 3.5 12.2 0.00 0.00 0.00 75 1018.3
20260510141929 62 82 2.6 3.5 0.00 0.00 0.00 76 1018.5
20260510141426 62 84 2.6 6.1 0.00 0.00 0.00 75 1018.3
20260510140924 62 87 1.7 3.5 0.00 0.00 0.00 75 1018.2
20260510140420 62 97 0.9 7.0 0.00 0.00 0.00 75 1018.2
20260510135919 62 83 2.6 7.0 0.00 0.00 0.00 75 1018.1
20260510135415 62 140 1.7 3.5 0.00 0.00 0.00 75 1018.0
20260510134913 62 48 1.7 5.2 0.00 0.00 0.00 75 1018.0
20260510134409 63 103 2.6 8.7 0.00 0.00 0.00 74 1018.0
20260510133905 63 129 1.7 5.2 0.00 0.00 0.00 75 1017.8
20260510133402 63 89 2.6 5.2 0.00 0.00 0.00 74 1017.9
20260510132857 63 96 1.7 2.6 0.00 0.00 0.00 75 1017.9
20260510132355 63 34 1.7 6.1 0.00 0.00 0.00 76 1017.7
20260510131851 62 80 3.5 7.0 0.00 0.00 0.00 77 1017.7
20260510131349 62 90 1.7 5.2 0.00 0.00 0.00 77 1017.6
20260510130845 62 48 3.5 5.2 0.00 0.00 0.00 77 1017.6
20260510130343 62 74 5.2 7.0 0.00 0.00 0.00 78 1017.4
20260510125839 62 34 3.5 7.0 0.00 0.00 0.00 78 1017.2
20260510125335 62 90 1.7 2.6 0.00 0.00 0.00 78 1017.1
20260510124833 63 99 3.5 7.0 0.00 0.00 0.00 77 1017.1
20260510124329 62 97 1.7 7.0 0.00 0.00 0.00 77 1016.7
20260510123825 62 68 2.6 5.2 0.00 0.00 0.00 78 1016.7
20260510123321 61 61 1.7 5.2 0.00 0.00 0.00 80 1016.8
20260510122817 60 93 1.7 5.2 0.00 0.00 0.00 81 1016.6
20260510122313 60 90 2.6 6.1 0.00 0.00 0.00 81 1016.5
20260510121810 60 73 1.7 3.5 0.00 0.00 0.00 81 1016.6
20260510121308 60 67 3.5 5.2 0.00 0.00 0.00 81 1016.4
20260510120805 59 68 0.9 1.7 0.00 0.00 0.00 83 1015.9
20260510120301 59 136 0.0 0.9 0.00 0.00 0.00 83 1016.0
20260510115757 59 126 1.7 2.6 0.00 0.00 0.00 82 1016.1
20260510115255 59 102 1.7 2.6 0.00 0.00 0.00 82 1015.8
20260510114755 59 87 0.9 1.7 0.00 0.00 0.00 82 1015.9
20260510114253 59 138 0.0 1.7 0.00 0.00 0.00 82 1015.5
20260510113754 59 92 0.9 2.6 0.00 0.00 0.00 82 1015.4
20260510113251 59 96 1.7 2.6 0.00 0.00 0.00 82 1015.2
20260510112747 58 81 0.9 2.6 0.00 0.00 0.00 83 1015.3
20260510112244 58 94 1.7 2.6 0.00 0.00 0.00 84 1015.3
20260510111740 57 102 0.0 2.6 0.00 0.00 0.00 85 1015.2
20260510111237 57 116 0.0 0.9 0.00 0.00 0.00 87 1015.2
20260510110736 56 105 0.0 1.7 0.00 0.00 0.00 89 1015.2
20260510110235 56 65 0.9 1.7 0.00 0.00 0.00 90 1015.0
20260510105734 56 101 0.0 0.9 0.00 0.00 0.00 90 1014.8
20260510105229 56 67 0.0 0.0 0.00 0.00 0.00 89 1014.7
20260510104726 56 99 0.0 0.0 0.00 0.00 0.00 88 1014.5
20260510104224 56 165 0.0 0.0 0.00 0.00 0.00 88 1014.3
20260510103720 57 117 0.0 0.0 0.00 0.00 0.00 87 1014.4
20260510103217 57 122 0.0 0.0 0.00 0.00 0.00 87 1014.5
20260510102717 57 171 0.9 1.7 0.00 0.00 0.00 87 1014.5
20260510102213 57 117 0.0 1.7 0.00 0.00 0.00 89 1014.6
20260510101710 56 21 0.9 1.7 0.00 0.00 0.00 91 1014.7
20260510101209 56 130 0.9 0.9 0.00 0.00 0.00 92 1014.6
20260510100704 55 167 0.0 0.0 0.00 0.00 0.00 91 1014.5
20260510100202 55 167 0.0 0.0 0.00 0.00 0.00 91 1014.3
20260510095657 55 167 0.0 0.0 0.00 0.00 0.00 90 1014.4
20260510095153 55 168 0.0 0.0 0.00 0.00 0.00 90 1014.5
20260510094651 56 168 0.0 0.0 0.00 0.00 0.00 90 1014.3
20260510094148 56 168 0.0 0.0 0.00 0.00 0.00 89 1014.5
20260510093644 56 168 0.0 0.0 0.00 0.00 0.00 89 1014.5
20260510093141 56 169 0.0 0.0 0.00 0.00 0.00 89 1014.2
20260510092637 57 169 0.0 0.0 0.00 0.00 0.00 89 1014.1
20260510092133 57 169 0.0 0.0 0.00 0.00 0.00 88 1014.0
20260510091629 57 169 0.0 0.0 0.00 0.00 0.00 88 1013.9
20260510091125 57 137 0.0 0.0 0.00 0.00 0.00 88 1013.8
20260510090623 57 88 0.0 0.0 0.00 0.00 0.00 88 1013.6
20260510090119 58 114 0.0 0.0 0.00 0.00 0.00 88 1013.6
20260510085614 58 138 0.0 0.0 0.00 0.00 0.00 87 1013.7
20260510085109 58 137 0.0 0.0 0.00 0.00 0.00 85 1013.5
20260510084606 58 137 0.0 0.0 0.00 0.00 0.00 85 1013.6
20260510084103 58 138 0.0 0.0 0.00 0.00 0.00 84 1013.6
20260510083559 59 137 0.0 0.0 0.00 0.00 0.00 84 1013.5
20260510083055 59 138 0.0 0.0 0.00 0.00 0.00 83 1013.5
20260510082552 59 138 0.0 0.0 0.00 0.00 0.00 82 1013.5
20260510082048 60 137 0.0 0.0 0.00 0.00 0.00 81 1013.4
20260510081543 60 137 0.0 0.0 0.00 0.00 0.00 80 1013.3
20260510081039 61 137 0.0 0.0 0.00 0.00 0.00 79 1013.5
20260510080538 62 137 0.0 0.0 0.00 0.00 0.00 77 1013.4
20260510080035 62 137 0.0 0.0 0.00 0.00 0.00 75 1013.3
20260510075533 63 112 0.0 0.0 0.00 0.00 0.00 73 1013.3
20260510075029 64 99 0.0 0.0 0.00 0.00 0.00 73 1013.5
20260510074527 64 84 0.0 0.0 0.00 0.00 0.00 68 1013.6
20260510074022 65 45 0.0 0.0 0.00 0.00 0.00 67 1013.3
20260510073518 64 83 0.0 1.7 0.00 0.00 0.00 67 1013.5
20260510073015 64 0 0.9 1.7 0.00 0.00 0.00 67 1013.6
20260510072512 64 134 0.0 1.7 0.00 0.00 0.00 69 1013.4
20260510072008 63 88 0.0 0.9 0.00 0.00 0.00 70 1013.4
20260510071504 63 50 1.7 2.6 0.00 0.00 0.00 73 1013.4
20260510071003 63 100 0.0 0.9 0.00 0.00 0.00 77 1013.0
20260510070459 63 351 1.7 1.7 0.00 0.00 0.00 75 1012.6
20260510065955 62 214 0.9 0.9 0.00 0.00 0.00 76 1012.3
20260510065452 61 211 0.0 0.9 0.00 0.00 0.00 81 1012.1
20260510064948 61 219 0.0 0.9 0.00 0.00 0.00 83 1012.2
20260510064445 61 156 0.0 0.0 0.00 0.00 0.00 86 1012.3
20260510063942 60 108 0.0 0.0 0.00 0.00 0.00 87 1012.4
20260510063438 60 101 0.0 0.0 0.00 0.00 0.00 89 1012.6
20260510062936 59 166 0.0 0.0 0.00 0.00 0.00 91 1012.4
20260510062436 59 208 0.0 0.0 0.00 0.00 0.00 91 1012.8
20260510061932 59 155 0.0 0.0 0.00 0.00 0.00 92 1012.9
20260510061429 59 154 0.0 0.9 0.00 0.00 0.00 92 1012.7
20260510060925 58 155 0.0 0.0 0.00 0.00 0.00 94 1012.9
20260510060422 58 155 0.0 0.0 0.00 0.00 0.00 94 1013.1
20260510055919 58 155 0.0 0.0 0.00 0.00 0.00 94 1012.9
20260510055414 58 156 0.0 0.0 0.00 0.00 0.00 95 1013.3
20260510054912 58 156 0.0 0.0 0.00 0.00 0.00 95 1013.3
20260510054408 58 153 0.0 0.0 0.00 0.00 0.00 95 1013.5
20260510053903 58 153 0.0 0.0 0.00 0.00 0.00 95 1013.4
20260510053359 58 153 0.0 0.0 0.00 0.00 0.00 95 1013.5
20260510052855 58 153 0.0 0.0 0.00 0.00 0.00 95 1013.5
20260510052351 58 153 0.0 1.7 0.00 0.00 0.00 95 1013.4
20260510051847 58 203 0.0 0.0 0.00 0.00 0.00 95 1013.6
20260510051344 57 203 0.0 0.0 0.00 0.00 0.00 95 1013.6
20260510050841 57 203 0.0 0.0 0.00 0.00 0.00 95 1013.7
20260510050338 57 202 0.0 0.0 0.00 0.00 0.00 95 1013.3
20260510045835 57 203 0.0 0.0 0.00 0.01 0.01 95 1013.4
20260510045331 56 203 0.0 0.0 0.00 0.01 0.01 94 1013.3
20260510044829 56 203 0.0 0.0 0.00 0.01 0.01 94 1013.4
20260510044326 56 203 0.0 0.0 0.00 0.01 0.01 94 1013.4
20260510043822 56 202 0.0 0.0 0.00 0.01 0.01 94 1013.1
20260510043318 56 202 0.0 0.0 0.00 0.01 0.01 94 1013.0
20260510042816 56 202 0.0 0.0 0.00 0.01 0.01 94 1013.1
20260510042311 56 203 0.0 0.0 0.00 0.01 0.01 93 1013.2
20260510041808 56 203 0.0 0.0 0.00 0.01 0.01 93 1013.2
20260510041305 56 202 0.0 0.0 0.00 0.01 0.01 93 1013.2
20260510040803 56 202 0.0 0.0 0.00 0.01 0.01 93 1013.2
20260510040259 56 202 0.0 0.0 0.00 0.01 0.01 93 1013.3
20260510035755 56 202 0.0 0.0 0.00 0.01 0.01 93 1013.1
20260510035250 56 202 0.0 0.0 0.00 0.01 0.01 92 1012.9
20260510034746 56 202 0.0 0.0 0.00 0.01 0.01 92 1013.1
20260510034245 56 203 0.0 0.0 0.00 0.01 0.01 92 1013.0
20260510033740 56 203 0.0 0.0 0.00 0.01 0.01 92 1012.9
20260510033238 56 203 0.0 0.0 0.00 0.01 0.01 92 1012.8
20260510032734 56 203 0.0 0.0 0.00 0.01 0.01 92 1012.6
20260510032230 56 203 0.0 0.0 0.00 0.01 0.01 91 1012.6
20260510031726 56 203 0.0 0.0 0.00 0.01 0.01 91 1012.4
20260510031222 56 203 0.0 0.0 0.00 0.01 0.01 91 1012.3
20260510030721 56 203 0.0 0.0 0.00 0.01 0.01 90 1012.3
20260510030219 57 203 0.0 0.0 0.00 0.01 0.01 90 1012.2
20260510025716 57 203 0.0 0.0 0.00 0.01 0.01 90 1012.2
20260510025213 57 203 0.0 0.0 0.00 0.01 0.01 89 1012.1
20260510024710 57 203 0.0 0.0 0.00 0.01 0.01 89 1012.2
20260510024207 57 203 0.0 0.0 0.00 0.01 0.01 88 1012.0
20260510023702 57 203 0.0 0.0 0.00 0.01 0.01 88 1012.0
20260510023200 58 203 0.0 0.0 0.00 0.01 0.01 88 1011.9
20260510022655 58 203 0.0 0.0 0.00 0.01 0.01 87 1011.7
20260510022150 58 203 0.0 0.0 0.00 0.01 0.01 87 1011.7
20260510021646 59 203 0.0 0.0 0.00 0.01 0.01 86 1011.5
20260510021144 59 203 0.0 0.0 0.00 0.01 0.01 86 1011.4
20260510020644 59 203 0.0 0.0 0.00 0.01 0.01 85 1011.2
20260510020139 60 202 0.0 0.0 0.00 0.01 0.01 84 1011.0
20260510015635 60 202 0.0 0.0 0.00 0.01 0.01 83 1011.2
20260510015132 61 203 0.0 0.0 0.00 0.01 0.01 82 1010.9
20260510014627 61 203 0.0 0.0 0.00 0.01 0.01 81 1010.8
20260510014125 62 203 0.0 0.0 0.00 0.01 0.01 80 1010.8
20260510013625 63 203 0.0 0.0 0.00 0.01 0.01 79 1010.8
20260510013121 64 203 0.0 0.0 0.00 0.01 0.01 77 1010.6
20260510012620 64 203 0.0 0.0 0.00 0.01 0.01 75 1010.4
20260510012117 66 203 0.0 0.0 0.00 0.01 0.01 74 1010.4
20260510011616 67 203 0.0 0.0 0.00 0.01 0.01 72 1010.3
20260510011112 68 203 0.0 0.0 0.00 0.01 0.01 69 1010.3
20260510010609 69 202 0.0 0.0 0.00 0.01 0.01 66 1009.9
20260510010107 70 202 0.0 0.0 0.00 0.01 0.01 63 1010.0
20260510005601 71 202 0.0 0.0 0.00 0.01 0.01 62 1010.2
20260510005059 73 202 0.0 0.0 0.00 0.01 0.01 58 1010.1
20260510004557 74 202 0.0 0.0 0.00 0.01 0.01 57 1010.0
20260510004055 75 203 0.0 0.0 0.00 0.01 0.01 54 1010.0
20260510003552 77 203 0.0 0.0 0.00 0.01 0.01 54 1010.0
20260510003047 79 203 0.0 0.0 0.00 0.01 0.01 52 1009.9
20260510002542 80 200 0.0 0.0 0.00 0.01 0.01 46 1009.9
20260510002040 82 201 0.0 0.0 0.00 0.01 0.01 43 1009.9
20260510001537 83 220 0.9 1.7 0.00 0.01 0.01 38 1009.9
20260510001036 84 207 0.0 0.9 0.00 0.01 0.01 43 1009.9
20260510000530 83 209 0.9 0.9 0.00 0.01 0.01 40 1010.0
20260510000027 83 203 0.0 0.0 0.00 0.01 0.01 43 1009.9
20260509235524 83 234 1.7 1.7 0.00 0.01 0.01 38 1010.0
20260509235021 84 200 0.9 1.7 0.00 0.01 0.01 36 1010.0
20260509234517 84 201 0.0 0.9 0.00 0.01 0.01 40 1010.1
20260509234015 84 201 0.9 0.9 0.00 0.01 0.01 37 1010.2
20260509233512 84 214 0.9 1.7 0.00 0.01 0.01 39 1010.2
20260509233009 85 259 2.6 3.5 0.00 0.01 0.01 36 1010.1
20260509232506 85 216 0.9 3.5 0.00 0.01 0.01 36 1010.1
20260509232002 85 156 1.7 1.7 0.00 0.01 0.01 33 1010.1
20260509231459 85 187 0.0 2.6 0.00 0.01 0.01 34 1010.0
20260509230957 86 177 1.7 3.5 0.00 0.01 0.01 32 1010.1
20260509230453 85 213 0.0 0.9 0.00 0.01 0.01 33 1010.1
20260509225949 85 191 0.9 1.7 0.00 0.01 0.01 33 1010.1
20260509225446 86 233 0.9 3.5 0.00 0.01 0.01 33 1010.1
20260509224942 86 245 1.7 1.7 0.00 0.01 0.01 33 1010.1
20260509224437 87 225 1.7 3.5 0.00 0.01 0.01 29 1010.1
20260509223935 87 168 0.9 5.2 0.00 0.01 0.01 33 1010.1
20260509223431 86 196 0.0 2.6 0.00 0.01 0.01 33 1010.2
20260509222929 87 178 1.7 2.6 0.00 0.01 0.01 30 1010.2
20260509222423 88 231 2.6 5.2 0.00 0.01 0.01 30 1010.0
20260509221919 87 191 0.0 1.7 0.00 0.01 0.01 28 1010.2
20260509221416 86 147 0.0 0.9 0.00 0.01 0.01 29 1010.2
20260509220912 86 260 0.9 3.5 0.00 0.01 0.01 30 1010.1
20260509220408 86 219 1.7 2.6 0.00 0.01 0.01 31 1010.3
20260509215904 85 266 3.5 3.5 0.00 0.01 0.01 31 1010.3
20260509215400 84 272 0.0 1.7 0.00 0.01 0.01 37 1010.3
20260509214858 85 246 1.7 2.6 0.00 0.01 0.01 30 1010.3
20260509214355 86 245 1.7 5.2 0.00 0.01 0.01 30 1010.2
20260509213853 86 256 2.6 2.6 0.00 0.01 0.01 33 1010.2
20260509213353 86 268 1.7 2.6 0.00 0.01 0.01 31 1010.2
20260509212851 86 251 1.7 3.5 0.00 0.01 0.01 31 1010.2
20260509212348 87 242 4.3 7.0 0.00 0.01 0.01 31 1010.3
20260509211844 87 208 2.6 2.6 0.00 0.01 0.01 29 1010.4
20260509211340 87 152 0.9 2.6 0.00 0.01 0.01 34 1010.6
20260509210836 87 196 0.9 1.7 0.00 0.01 0.01 31 1010.5
20260509210334 87 128 0.0 2.6 0.00 0.01 0.01 32 1010.6
20260509205834 85 267 0.9 0.9 0.00 0.01 0.01 33 1010.5
20260509205329 85 181 0.9 2.6 0.00 0.01 0.01 32 1010.8
20260509204826 85 279 5.2 6.1 0.00 0.01 0.01 32 1010.5
20260509204322 85 291 6.1 7.0 0.00 0.01 0.01 32 1010.6
20260509203818 84 254 3.5 3.5 0.00 0.01 0.01 32 1010.8
20260509203315 84 257 1.7 5.2 0.00 0.01 0.01 31 1010.9
20260509202811 85 252 1.7 7.0 0.00 0.01 0.01 31 1011.1
20260509202308 85 209 1.7 3.5 0.00 0.01 0.01 35 1010.7
20260509201808 85 10 4.3 6.1 0.00 0.01 0.01 33 1010.9
20260509201305 85 237 2.6 5.2 0.00 0.01 0.01 32 1010.9
20260509200801 85 282 1.7 6.1 0.00 0.01 0.01 30 1011.1
20260509200256 85 47 2.6 2.6 0.00 0.01 0.01 32 1011.0
20260509195753 84 245 2.6 6.1 0.00 0.01 0.01 32 1011.0
20260509195248 85 185 3.5 5.2 0.00 0.01 0.01 32 1011.0
20260509194747 85 53 0.9 2.6 0.00 0.01 0.01 35 1011.0
20260509194244 84 243 0.9 2.6 0.00 0.01 0.01 34 1011.1
20260509193741 84 241 3.5 6.1 0.00 0.01 0.01 36 1010.9
20260509193240 84 320 0.9 2.6 0.00 0.01 0.01 27 1011.0
20260509192737 84 232 1.7 3.5 0.00 0.01 0.01 35 1011.2
20260509192232 84 241 1.7 2.6 0.00 0.01 0.01 40 1011.1
20260509191728 83 243 1.7 3.5 0.00 0.01 0.01 32 1011.3
20260509191225 82 225 2.6 6.1 0.00 0.01 0.01 34 1011.4
20260509190721 83 256 4.3 6.1 0.00 0.01 0.01 39 1011.2
20260509190218 82 207 1.7 2.6 0.00 0.01 0.01 38 1011.5
20260509185716 82 270 5.2 7.0 0.00 0.01 0.01 35 1011.5
20260509185212 82 264 3.5 5.2 0.00 0.01 0.01 39 1011.5
20260509184710 82 246 3.5 6.1 0.00 0.01 0.01 38 1011.4
20260509184207 82 240 1.7 5.2 0.00 0.01 0.01 45 1011.4
20260509183703 82 276 0.9 5.2 0.00 0.01 0.01 43 1011.5
20260509183158 82 280 1.7 3.5 0.00 0.01 0.01 39 1011.6
20260509182654 82 267 2.6 6.1 0.00 0.01 0.01 41 1011.6
20260509182152 83 270 3.5 6.1 0.00 0.01 0.01 39 1011.5
20260509181649 82 297 1.7 2.6 0.00 0.01 0.01 40 1011.5
20260509181147 83 241 5.2 6.1 0.00 0.01 0.01 37 1011.6
20260509180643 83 183 1.7 6.1 0.00 0.01 0.01 40 1011.6
20260509180139 82 201 0.9 1.7 0.00 0.01 0.01 45 1011.8
20260509175635 82 273 3.5 3.5 0.00 0.01 0.01 42 1011.6
20260509175133 82 300 2.6 2.6 0.00 0.01 0.01 46 1011.7
20260509174628 81 230 1.7 5.2 0.00 0.01 0.01 46 1011.7
20260509174123 81 99 0.9 3.5 0.00 0.01 0.01 44 1011.9
20260509173620 81 214 1.7 5.2 0.00 0.01 0.01 45 1011.7
20260509173115 80 176 0.9 6.1 0.00 0.01 0.01 45 1011.9
20260509172612 81 269 4.3 7.8 0.00 0.01 0.01 46 1011.9
20260509172108 81 239 1.7 6.1 0.00 0.01 0.01 44 1011.8
20260509171604 81 241 1.7 2.6 0.00 0.01 0.01 50 1011.8
20260509171100 80 308 1.7 3.5 0.00 0.01 0.01 51 1011.7
20260509170557 80 321 1.7 1.7 0.00 0.01 0.01 46 1011.9
20260509170053 80 237 2.6 6.1 0.00 0.01 0.01 47 1011.7
20260509165551 79 238 1.7 2.6 0.00 0.01 0.01 49 1011.9
20260509165047 80 244 4.3 6.1 0.00 0.01 0.01 46 1011.9